| time (UTC) | temp F | wind direction | speed MPH | gust MPH | rain 1hr in | rain 24hr in | rain mn in | humidity % | barometer mb |
| 20260504050504 | 51 | 0 | 0.0 | 0.0 | 0.00 | 0.16 | 0.16 | 96 | 1003.9 |
| 20260504045504 | 51 | 248 | 0.0 | 1.0 | 0.00 | 0.16 | 0.16 | 96 | 1003.9 |
| 20260504045005 | 51 | 0 | 0.0 | 0.0 | 0.00 | 0.16 | 0.16 | 96 | 1003.9 |
| 20260504044504 | 51 | 0 | 0.0 | 0.0 | 0.00 | 0.16 | 0.16 | 96 | 1003.9 |
| 20260504044005 | 51 | 0 | 0.0 | 0.0 | 0.00 | 0.16 | 0.16 | 96 | 1003.9 |
| 20260504043504 | 51 | 0 | 0.0 | 0.0 | 0.06 | 0.16 | 0.16 | 96 | 1003.9 |
| 20260504043004 | 51 | 0 | 0.0 | 0.0 | 0.06 | 0.16 | 0.16 | 96 | 1003.9 |
| 20260504042505 | 51 | 0 | 0.0 | 0.0 | 0.06 | 0.16 | 0.16 | 96 | 1003.9 |
| 20260504042005 | 51 | 0 | 0.0 | 0.0 | 0.06 | 0.16 | 0.16 | 96 | 1003.9 |
| 20260504041505 | 50 | 0 | 0.0 | 0.0 | 0.06 | 0.16 | 0.16 | 96 | 1003.9 |
| 20260504041004 | 50 | 0 | 0.0 | 0.0 | 0.06 | 0.16 | 0.16 | 96 | 1003.9 |
| 20260504040505 | 50 | 0 | 0.0 | 0.0 | 0.06 | 0.16 | 0.16 | 96 | 1003.9 |
| 20260504040004 | 50 | 0 | 0.0 | 0.0 | 0.06 | 0.16 | 0.16 | 96 | 1003.9 |
| 20260504035504 | 50 | 0 | 0.0 | 0.0 | 0.06 | 0.16 | 0.16 | 96 | 1003.9 |
| 20260504035004 | 50 | 0 | 0.0 | 0.0 | 0.06 | 0.16 | 0.16 | 96 | 1003.9 |
| 20260504034504 | 51 | 0 | 0.0 | 0.0 | 0.06 | 0.16 | 0.16 | 96 | 1003.9 |
| 20260504034005 | 51 | 0 | 0.0 | 0.0 | 0.06 | 0.16 | 0.16 | 96 | 1003.9 |
| 20260504033505 | 51 | 0 | 0.0 | 0.0 | 0.00 | 0.10 | 0.10 | 96 | 1003.9 |
| 20260504033004 | 51 | 0 | 0.0 | 0.0 | 0.00 | 0.10 | 0.10 | 96 | 1003.9 |
| 20260504032005 | 51 | 0 | 0.0 | 0.0 | 0.00 | 0.10 | 0.10 | 96 | 1003.9 |
| 20260504031504 | 51 | 0 | 0.0 | 0.0 | 0.00 | 0.10 | 0.10 | 96 | 1003.9 |
| 20260504031005 | 51 | 0 | 0.0 | 0.0 | 0.00 | 0.10 | 0.10 | 96 | 1003.9 |
| 20260504030505 | 51 | 0 | 0.0 | 0.0 | 0.00 | 0.10 | 0.10 | 96 | 1003.9 |
| 20260504030005 | 51 | 328 | 0.0 | 3.0 | 0.00 | 0.10 | 0.10 | 96 | 1003.9 |
| 20260504025504 | 51 | 328 | 0.0 | 3.0 | 0.00 | 0.10 | 0.10 | 96 | 1003.9 |
| 20260504025005 | 51 | 341 | 1.0 | 5.0 | 0.00 | 0.10 | 0.10 | 96 | 1003.9 |
| 20260504024504 | 51 | 341 | 1.0 | 5.0 | 0.00 | 0.10 | 0.10 | 96 | 1003.9 |
| 20260504024004 | 51 | 337 | 2.0 | 6.0 | 0.00 | 0.10 | 0.10 | 96 | 1003.9 |
| 20260504023005 | 51 | 334 | 2.0 | 6.0 | 0.00 | 0.10 | 0.10 | 96 | 1003.9 |
| 20260504022505 | 51 | 337 | 0.0 | 2.0 | 0.00 | 0.10 | 0.10 | 96 | 1003.9 |
| 20260504022004 | 51 | 292 | 0.0 | 1.0 | 0.05 | 0.10 | 0.10 | 96 | 1003.9 |
| 20260504021504 | 51 | 292 | 0.0 | 1.0 | 0.05 | 0.10 | 0.10 | 96 | 1003.9 |
| 20260504021005 | 51 | 0 | 0.0 | 0.0 | 0.05 | 0.10 | 0.10 | 96 | 1003.9 |
| 20260504020505 | 51 | 0 | 0.0 | 0.0 | 0.05 | 0.10 | 0.10 | 96 | 1003.9 |
| 20260504020004 | 51 | 0 | 0.0 | 0.0 | 0.05 | 0.10 | 0.10 | 96 | 1003.9 |
| 20260504015504 | 51 | 0 | 0.0 | 0.0 | 0.05 | 0.10 | 0.10 | 96 | 1003.9 |
| 20260504015005 | 51 | 0 | 0.0 | 0.0 | 0.05 | 0.10 | 0.10 | 96 | 1003.9 |
| 20260504014504 | 51 | 0 | 0.0 | 0.0 | 0.05 | 0.10 | 0.10 | 96 | 1003.9 |
| 20260504014004 | 51 | 0 | 0.0 | 0.0 | 0.05 | 0.10 | 0.10 | 96 | 1004.9 |
| 20260504013505 | 51 | 0 | 0.0 | 0.0 | 0.05 | 0.10 | 0.10 | 96 | 1004.9 |
| 20260504013005 | 51 | 0 | 0.0 | 0.0 | 0.05 | 0.10 | 0.10 | 96 | 1004.9 |
| 20260504012504 | 51 | 0 | 0.0 | 0.0 | 0.05 | 0.10 | 0.10 | 96 | 1003.9 |
| 20260504012005 | 51 | 0 | 0.0 | 0.0 | 0.00 | 0.05 | 0.05 | 96 | 1003.9 |
| 20260504011505 | 51 | 0 | 0.0 | 0.0 | 0.00 | 0.05 | 0.05 | 96 | 1003.9 |
| 20260504011004 | 51 | 0 | 0.0 | 0.0 | 0.00 | 0.05 | 0.05 | 96 | 1004.9 |
| 20260504010504 | 51 | 0 | 0.0 | 0.0 | 0.00 | 0.05 | 0.05 | 96 | 1004.9 |
| 20260504005504 | 51 | 0 | 0.0 | 0.0 | 0.05 | 0.05 | 0.05 | 96 | 1004.9 |
| 20260504004504 | 51 | 76 | 0.0 | 5.0 | 0.05 | 0.05 | 0.05 | 96 | 1004.9 |
| 20260504004005 | 51 | 92 | 2.0 | 5.0 | 0.05 | 0.05 | 0.05 | 95 | 1004.9 |
| 20260504003505 | 51 | 96 | 2.0 | 5.0 | 0.05 | 0.05 | 0.05 | 95 | 1004.9 |
| 20260504003005 | 51 | 102 | 1.0 | 5.0 | 0.05 | 0.05 | 0.05 | 95 | 1004.9 |
| 20260504002505 | 51 | 0 | 0.0 | 0.0 | 0.05 | 0.05 | 0.05 | 95 | 1005.9 |
| 20260504002004 | 51 | 0 | 0.0 | 0.0 | 0.05 | 0.05 | 0.05 | 95 | 1005.9 |
| 20260504001505 | 51 | 0 | 0.0 | 0.0 | 0.05 | 0.05 | 0.05 | 95 | 1005.9 |
| 20260504001004 | 51 | 0 | 0.0 | 0.0 | 0.05 | 0.05 | 0.05 | 94 | 1006.9 |
| 20260504000504 | 51 | 0 | 0.0 | 0.0 | 0.05 | 0.05 | 0.05 | 94 | 1006.9 |
| 20260503235505 | 51 | 0 | 0.0 | 0.0 | 0.00 | 0.00 | 0.00 | 94 | 1005.9 |
| 20260503235004 | 51 | 0 | 0.0 | 0.0 | 0.00 | 0.00 | 0.00 | 94 | 1005.9 |
| 20260503234504 | 51 | 0 | 0.0 | 0.0 | 0.00 | 0.00 | 0.00 | 94 | 1005.9 |
| 20260503234004 | 51 | 0 | 0.0 | 0.0 | 0.00 | 0.00 | 0.00 | 94 | 1004.9 |
| 20260503233504 | 51 | 0 | 0.0 | 0.0 | 0.00 | 0.00 | 0.00 | 94 | 1004.9 |
| 20260503233004 | 51 | 0 | 0.0 | 0.0 | 0.00 | 0.00 | 0.00 | 94 | 1004.9 |
| 20260503232504 | 51 | 0 | 0.0 | 0.0 | 0.00 | 0.00 | 0.00 | 94 | 1005.9 |
| 20260503232005 | 51 | 0 | 0.0 | 0.0 | 0.00 | 0.00 | 0.00 | 94 | 1005.9 |
| 20260503231504 | 51 | 0 | 0.0 | 0.0 | 0.00 | 0.00 | 0.00 | 94 | 1005.9 |
| 20260503230504 | 51 | 236 | 0.0 | 2.0 | 0.00 | 0.00 | 0.00 | 94 | 1005.9 |
| 20260503230005 | 51 | 236 | 0.0 | 2.0 | 0.00 | 0.00 | 0.00 | 94 | 1005.9 |
| 20260503225504 | 51 | 248 | 0.0 | 4.0 | 0.00 | 0.00 | 0.00 | 94 | 1005.9 |
| 20260503225005 | 51 | 248 | 0.0 | 4.0 | 0.00 | 0.00 | 0.00 | 94 | 1005.9 |
| 20260503224504 | 51 | 314 | 0.0 | 3.0 | 0.00 | 0.00 | 0.00 | 94 | 1005.9 |
| 20260503224005 | 51 | 314 | 0.0 | 3.0 | 0.00 | 0.00 | 0.00 | 94 | 1005.9 |
| 20260503223504 | 51 | 0 | 0.0 | 0.0 | 0.00 | 0.00 | 0.00 | 95 | 1005.9 |
| 20260503223005 | 51 | 0 | 0.0 | 0.0 | 0.00 | 0.00 | 0.00 | 95 | 1005.9 |
| 20260503222504 | 51 | 112 | 0.0 | 1.0 | 0.00 | 0.00 | 0.00 | 95 | 1005.9 |
| 20260503221504 | 51 | 0 | 0.0 | 0.0 | 0.00 | 0.00 | 0.00 | 96 | 1005.9 |
| 20260503220505 | 51 | 0 | 0.0 | 0.0 | 0.00 | 0.00 | 0.00 | 94 | 1005.9 |
| 20260503220004 | 51 | 0 | 0.0 | 0.0 | 0.00 | 0.00 | 0.00 | 94 | 1005.9 |
| 20260503215505 | 51 | 0 | 0.0 | 0.0 | 0.00 | 0.00 | 0.00 | 93 | 1006.9 |
| 20260503215005 | 51 | 0 | 0.0 | 0.0 | 0.00 | 0.00 | 0.00 | 93 | 1006.9 |
| 20260503214504 | 51 | 0 | 0.0 | 0.0 | 0.00 | 0.00 | 0.00 | 93 | 1006.9 |
| 20260503214005 | 51 | 0 | 0.0 | 0.0 | 0.00 | 0.00 | 0.00 | 93 | 1005.9 |
| 20260503213504 | 51 | 203 | 0.0 | 2.0 | 0.00 | 0.00 | 0.00 | 93 | 1005.9 |
| 20260503213005 | 51 | 203 | 0.0 | 2.0 | 0.00 | 0.00 | 0.00 | 93 | 1005.9 |
| 20260503212005 | 51 | 77 | 0.0 | 3.0 | 0.00 | 0.00 | 0.00 | 94 | 1004.9 |
| 20260503211504 | 51 | 71 | 1.0 | 4.0 | 0.00 | 0.00 | 0.00 | 93 | 1004.9 |
| 20260503211004 | 51 | 68 | 0.0 | 4.0 | 0.00 | 0.00 | 0.00 | 94 | 1005.9 |
| 20260503210504 | 51 | 0 | 0.0 | 0.0 | 0.00 | 0.00 | 0.00 | 94 | 1005.9 |
| 20260503210006 | 51 | 0 | 0.0 | 0.0 | 0.00 | 0.00 | 0.00 | 94 | 1005.9 |
| 20260503205504 | 51 | 0 | 0.0 | 0.0 | 0.00 | 0.00 | 0.00 | 93 | 1005.9 |
| 20260503205005 | 51 | 356 | 0.0 | 3.0 | 0.00 | 0.00 | 0.00 | 93 | 1005.9 |
| 20260503204504 | 51 | 52 | 1.0 | 5.0 | 0.00 | 0.00 | 0.00 | 92 | 1005.9 |
| 20260503204005 | 51 | 70 | 1.0 | 5.0 | 0.00 | 0.00 | 0.00 | 92 | 1006.9 |
| 20260503203504 | 51 | 0 | 0.0 | 0.0 | 0.00 | 0.00 | 0.00 | 91 | 1006.9 |
| 20260503203005 | 51 | 0 | 0.0 | 0.0 | 0.00 | 0.00 | 0.00 | 90 | 1006.9 |
| 20260503202504 | 51 | 0 | 0.0 | 0.0 | 0.00 | 0.00 | 0.00 | 90 | 1006.9 |
| 20260503202004 | 51 | 0 | 0.0 | 0.0 | 0.00 | 0.00 | 0.00 | 90 | 1006.9 |
| 20260503201505 | 51 | 0 | 0.0 | 0.0 | 0.00 | 0.00 | 0.00 | 90 | 1006.9 |
| 20260503201004 | 51 | 0 | 0.0 | 0.0 | 0.00 | 0.00 | 0.00 | 90 | 1006.9 |
| 20260503200505 | 51 | 0 | 0.0 | 0.0 | 0.00 | 0.00 | 0.00 | 90 | 1006.9 |
| 20260503195005 | 51 | 0 | 0.0 | 0.0 | 0.00 | 0.00 | 0.00 | 89 | 1008.0 |
| 20260503194505 | 52 | 0 | 0.0 | 0.0 | 0.00 | 0.00 | 0.00 | 89 | 1008.0 |
| 20260503193504 | 52 | 0 | 0.0 | 0.0 | 0.00 | 0.00 | 0.00 | 89 | 1006.9 |
| 20260503193005 | 52 | 0 | 0.0 | 0.0 | 0.00 | 0.00 | 0.00 | 89 | 1006.9 |
| 20260503192505 | 52 | 0 | 0.0 | 0.0 | 0.00 | 0.00 | 0.00 | 88 | 1006.9 |
| 20260503192005 | 52 | 0 | 0.0 | 0.0 | 0.00 | 0.00 | 0.00 | 88 | 1006.9 |
| 20260503191006 | 52 | 0 | 0.0 | 0.0 | 0.00 | 0.00 | 0.00 | 88 | 1006.9 |
| 20260503190504 | 52 | 0 | 0.0 | 0.0 | 0.00 | 0.00 | 0.00 | 87 | 1006.9 |
| 20260503190005 | 53 | 0 | 0.0 | 0.0 | 0.00 | 0.00 | 0.00 | 87 | 1006.9 |
| 20260503185005 | 53 | 0 | 0.0 | 0.0 | 0.00 | 0.00 | 0.00 | 86 | 1008.0 |
| 20260503184505 | 53 | 0 | 0.0 | 0.0 | 0.00 | 0.00 | 0.00 | 86 | 1008.0 |
| 20260503184005 | 53 | 0 | 0.0 | 0.0 | 0.00 | 0.00 | 0.00 | 86 | 1008.0 |
| 20260503183504 | 53 | 0 | 0.0 | 0.0 | 0.00 | 0.00 | 0.00 | 86 | 1008.0 |
| 20260503182505 | 54 | 0 | 0.0 | 0.0 | 0.00 | 0.00 | 0.00 | 85 | 1008.0 |
| 20260503182006 | 54 | 0 | 0.0 | 0.0 | 0.00 | 0.00 | 0.00 | 84 | 1008.0 |
| 20260503181005 | 54 | 292 | 0.0 | 2.0 | 0.00 | 0.00 | 0.00 | 83 | 1008.0 |
| 20260503180504 | 55 | 0 | 0.0 | 0.0 | 0.00 | 0.00 | 0.00 | 82 | 1008.0 |
| 20260503180005 | 55 | 0 | 0.0 | 0.0 | 0.00 | 0.00 | 0.00 | 82 | 1008.0 |
| 20260503175504 | 55 | 0 | 0.0 | 0.0 | 0.00 | 0.00 | 0.00 | 82 | 1008.0 |
| 20260503175005 | 55 | 0 | 0.0 | 0.0 | 0.00 | 0.00 | 0.00 | 81 | 1008.0 |
| 20260503174504 | 55 | 0 | 0.0 | 0.0 | 0.00 | 0.00 | 0.00 | 81 | 1008.0 |
| 20260503174005 | 56 | 0 | 0.0 | 0.0 | 0.00 | 0.00 | 0.00 | 81 | 1008.0 |
| 20260503173504 | 56 | 0 | 0.0 | 0.0 | 0.00 | 0.00 | 0.00 | 81 | 1008.0 |
| 20260503173004 | 56 | 0 | 0.0 | 0.0 | 0.00 | 0.00 | 0.00 | 81 | 1008.0 |
| 20260503172505 | 56 | 0 | 0.0 | 0.0 | 0.00 | 0.00 | 0.00 | 81 | 1008.0 |
| 20260503171005 | 56 | 0 | 0.0 | 0.0 | 0.00 | 0.00 | 0.00 | 80 | 1009.0 |
| 20260503170505 | 56 | 0 | 0.0 | 0.0 | 0.00 | 0.00 | 0.00 | 80 | 1009.0 |
| 20260503151005 | 57 | 223 | 2.0 | 5.0 | 0.00 | 0.00 | 0.00 | 84 | 1009.0 |
| 20260503131005 | 56 | 225 | 2.0 | 7.0 | 0.00 | 0.00 | 0.00 | 82 | 1010.0 |
| 20260503110504 | 57 | 223 | 4.0 | 10.0 | 0.00 | 0.00 | 0.00 | 82 | 1009.0 |
| 20260503090505 | 54 | 237 | 3.0 | 7.0 | 0.00 | 0.00 | 0.00 | 88 | 1010.0 |
| 20260503081504 | 54 | 253 | 4.0 | 10.0 | 0.00 | 0.00 | 0.00 | 89 | 1010.0 |
| 20260503081005 | 54 | 249 | 2.0 | 8.0 | 0.00 | 0.00 | 0.00 | 89 | 1011.0 |
| 20260503080505 | 54 | 236 | 1.0 | 5.0 | 0.00 | 0.00 | 0.00 | 89 | 1011.0 |
| 20260503072505 | 53 | 237 | 2.0 | 6.0 | 0.00 | 0.00 | 0.00 | 91 | 1010.0 |
| 20260503071504 | 53 | 268 | 1.0 | 7.0 | 0.00 | 0.00 | 0.00 | 91 | 1010.0 |
| 20260503071004 | 53 | 255 | 1.0 | 7.0 | 0.00 | 0.00 | 0.00 | 91 | 1009.0 |
| 20260503070505 | 53 | 248 | 1.0 | 5.0 | 0.00 | 0.00 | 0.00 | 91 | 1009.0 |
| 20260503055005 | 52 | 240 | 1.0 | 5.0 | 0.00 | 0.00 | 0.00 | 91 | 1009.0 |
| 20260503054505 | 52 | 243 | 1.0 | 7.0 | 0.00 | 0.00 | 0.00 | 91 | 1009.0 |
| 20260503053505 | 52 | 231 | 1.0 | 4.0 | 0.00 | 0.00 | 0.00 | 91 | 1009.0 |
| 20260503053005 | 52 | 248 | 1.0 | 5.0 | 0.00 | 0.00 | 0.00 | 91 | 1009.0 |
| 20260503052505 | 52 | 256 | 1.0 | 5.0 | 0.00 | 0.00 | 0.00 | 91 | 1009.0 |
| 20260503051504 | 52 | 253 | 3.0 | 7.0 | 0.00 | 0.00 | 0.00 | 91 | 1009.0 |